Location: Alma
(38.7220°N, 88.9090°W)
Time: 04:10:42
(UTC-06:00)

Vanguard 2 - Pass Details

Date: 15 November 2019
Orbit: 553 x 2938 km, 32.9° (Epoch: 09 December)

Event Time Altitude Azimuth Distance (km) Brightness Sun altitude
Rises 07:15:32 0° 211° (SSW) 5,585 11.9 5.8°
Reaches altitude 10° 07:21:07 10° 196° (SSW) 4,079 11.5 6.7°
Maximum altitude 07:27:27 18° 158° (SSE) 2,840 11.4 7.8°
Drops below altitude 10° 07:32:14 10° 117° (ESE) 2,942 13.6 8.6°
Sets 07:35:22 0° 98° (E) 3,571 12.3 9.1°
